This demonstration page uses our WeatherBlox Daily Observations layout. Learn more.

Left ArrowRight Arrow

41.86663, -103.66717

Hourly Observations for May 24, 2021

Temp ( °F °C ) Dew Point ( °F °C ) Humidity (%) Winds ( mph kmh ) Pressure ( in mb ) Visibility ( mi km ) Precip ( " mm )
12:53 am 00:53 Clear 44 6.7 43 6.1 96 96 SE 8 13 29.96 1015 10 16 0.00 0.00
1:53 am 01:53 Clear 43 6.1 42 5.6 97 97 SSE 7 11 29.97 1015 10 16 0.00 0.00
2:53 am 02:53 Clear 43 6.1 42 5.6 97 97 Calm 29.95 1014 10 16 0.00 0.00
3:53 am 03:53 Clear 42 5.6 41 5 96 96 E 8 13 30.03 1017 10 16 0.00 0.00
4:53 am 04:53 Clear 40 4.4 39 3.9 97 97 E 6 9 30.03 1017 10 16 0.00 0.00
5:53 am 05:53 Sunny 40 4.4 39 3.9 97 97 NNE 5 7 30.04 1017 10 16 0.00 0.00
6:53 am 06:53 Sunny 47 8.3 45 7.2 93 93 Calm 30.02 1017 10 16 0.00 0.00
7:53 am 07:53 Sunny 51 10.6 46 7.8 83 83 Calm 30.01 1016 10 16 0.00 0.00
8:53 am 08:53 Sunny 55 12.8 47 8.3 74 74 NNE 3 6 30.01 1016 10 16 0.00 0.00
9:53 am 09:53 Sunny 60 15.6 46 7.8 60 60 NNW 6 9 29.98 1015 10 16 0.00 0.00
10:53 am 10:53 Sunny 65 18.3 48 8.9 54 54 undefined N/A 29.96 1015 10 16 0.00 0.00
11:53 am 11:53 Sunny 69 20.6 48 8.9 47 47 VRB 5 7 29.94 1014 10 16 0.00 0.00
12:53 pm 12:53 Mostly Cloudy 66 18.9 47 8.3 50 50 NW 18 30 29.92 1013 10 16 0.00 0.00
1:04 pm 13:04 Mostly Cloudy 66 19 45 7 46 46 NW 14 22 29.82 1010 10 16 0.00 0.00
1:53 pm 13:53 Mostly Sunny 69 20.6 49 9.4 49 49 NNW 7 11 29.91 1013 10 16 0.00 0.00
2:53 pm 14:53 Sunny 72 22.2 53 11.7 52 52 Calm 29.87 1012 10 16 0.00 0.00
3:53 pm 15:53 Sunny 74 23.3 54 12.2 50 50 VRB 6 9 29.85 1011 10 16 0.00 0.00
4:53 pm 16:53 Mostly Sunny 75 23.9 55 12.8 50 50 W 13 20 29.84 1011 10 16 0.00 0.00
5:53 pm 17:53 Sunny 73 22.8 53 11.7 50 50 WNW 14 22 29.85 1011 10 16 0.00 0.00
6:53 pm 18:53 Sunny 71 21.7 50 10 47 47 WNW 10 17 29.85 1011 10 16 0.00 0.00
7:53 pm 19:53 Sunny 67 19.4 45 7.2 45 45 Calm 29.85 1011 10 16 0.00 0.00
8:53 pm 20:53 Clear 63 17.2 40 4.4 43 43 Calm 29.88 1012 10 16 0.00 0.00
9:53 pm 21:53 Clear 57 13.9 41 5 55 55 W 3 6 29.91 1013 10 16 0.00 0.00
10:53 pm 22:53 Clear 52 11.1 42 5.6 69 69 NW 3 6 29.92 1013 10 16 0.00 0.00
11:53 pm 23:53 Clear 51 10.6 39 3.9 64 64 SW 3 6 29.93 1013 10 16 0.00 0.00

Powered by AerisWeather